Location: Pian di Sc�
(43.6333°N, 11.5500°E)
Time: 17:49:59
(UTC+00:00)

Cosmos 1603 - Pass Details

Date: 07 August 2020
Orbit: 830 x 860 km, 71.0° (Epoch: 17 September)

Event Time Altitude Azimuth Distance (km) Brightness Sun altitude
Rises 02:39:33 0° 335° (NNW) 3,444 7.1 -14.6°
Reaches altitude 10° 02:42:01 10° 337° (NNW) 2,502 6.4 -14.3°
Maximum altitude 02:47:47 79° 65° (ENE) 875 3.9 -13.5°
Drops below altitude 10° 02:53:29 10° 152° (SSE) 2,472 6.0 -12.7°
Sets 02:55:55 0° 153° (SSE) 3,399 6.7 -12.3°
